Starlink 35819

operational
NORAD ID: 66286 Int'l Des: 2025-247 Owner: SPXS Country: US Constellation: starlink
NOTLE

Über Starlink 35819

Beschreibung wird geladen...

Live-Position

3D-Globus wird geladen...

Nächste Überflüge

Höhenverlauf

Altitude vs Time

uPlot chart will show altitude changes over time

Zweizeiliger Elementsatz

1 66286C 25247W 25305.06784722 .00473600 00000+0 70886-3 0 3051
2 66286 53.1562 79.7528 0008874 258.4677 328.7264 16.03460916 15
Epoch: 1. Nov. 2025 • Age: 66 hours

Aktueller Status

Höhe 258.4 km
Geschwindigkeit 7.75 km/s
Subsatellitenpunkt 6.52°N, 67.26°W
Startdatum 31. Okt. 2025
Alter 2 days
Typ internet

Technische Details

Klassifizierung Payload
Masse 575.00 kg
Trockenmasse 530.00 kg
Gesamtmasse 575.00 kg
Länge 0.30 m
Durchmesser 4.10 m
Spannweite 29.00 m
Form Box + pan
Hersteller SPXS
Bus-Typ Starlink V2MO
Phasenstatus In Orbit
Besitzer/Staat SPXS/US

Große Konstellationen

Loading constellations...